Time,TemperatureF,DewpointF,PressureIn,WindDirection,WindDirectionDegrees,WindSpeedMPH,WindSpeedGustMPH,Humidity,HourlyPrecipIn,Conditions,Clouds,dailyrainin,SoftwareType,DateUTC
2013-02-04 00:03:00,34.0,-99.9,29.85,WNW,296,20.0,25.0,-999,-99.99,,,-99.99,,2013-02-04 05:03:00,
2013-02-04 00:12:00,34.0,-99.9,29.86,WNW,300,22.0,28.0,-999,-99.99,,,-99.99,,2013-02-04 05:12:00,
2013-02-04 00:22:00,34.0,-99.9,29.86,WNW,303,22.0,31.0,-999,-99.99,,,-99.99,,2013-02-04 05:22:00,
2013-02-04 00:33:00,34.0,-99.9,29.87,NW,306,25.0,34.0,-999,-99.99,,,-99.99,,2013-02-04 05:33:00,
2013-02-04 00:42:00,33.0,-99.9,29.87,NW,314,19.0,30.0,-999,-99.99,,,-99.99,,2013-02-04 05:42:00,
2013-02-04 00:52:00,33.0,-99.9,29.88,NW,320,18.0,30.0,-999,-99.99,,,-99.99,,2013-02-04 05:52:00,
2013-02-04 01:02:00,34.0,-99.9,29.88,NW,317,17.0,28.0,-999,-99.99,,,-99.99,,2013-02-04 06:02:00,
2013-02-04 01:11:00,33.0,-99.9,29.88,NW,324,19.0,34.0,-999,-99.99,,,-99.99,,2013-02-04 06:11:00,
2013-02-04 01:22:00,33.0,-99.9,29.88,NNW,333,12.0,26.0,-999,-99.99,,,-99.99,,2013-02-04 06:22:00,
2013-02-04 01:32:00,-999.0,-99.9,29.88,NNW,332,15.0,28.0,-999,-99.99,,,-99.99,,2013-02-04 06:32:00,
2013-02-04 01:42:00,-999.0,-99.9,29.89,NNW,328,15.0,34.0,-999,-99.99,,,-99.99,,2013-02-04 06:42:00,
2013-02-04 01:52:00,-999.0,-99.9,29.89,NNW,330,16.0,37.0,-999,-99.99,,,-99.99,,2013-02-04 06:52:00,
2013-02-04 02:02:00,-999.0,-99.9,29.89,NNW,333,13.0,25.0,-999,-99.99,,,-99.99,,2013-02-04 07:02:00,
2013-02-04 02:11:00,-999.0,-99.9,29.90,NNW,341,12.0,27.0,-999,-99.99,,,-99.99,,2013-02-04 07:11:00,
2013-02-04 02:22:00,-999.0,-99.9,29.91,NNW,339,15.0,28.0,-999,-99.99,,,-99.99,,2013-02-04 07:22:00,
2013-02-04 02:32:00,31.0,-99.9,29.91,NNW,344,15.0,33.0,-999,-99.99,,,-99.99,,2013-02-04 07:32:00,
2013-02-04 02:42:00,-999.0,-99.9,29.91,NNW,332,15.0,29.0,-999,-99.99,,,-99.99,,2013-02-04 07:42:00,
2013-02-04 02:52:00,-999.0,-99.9,29.92,NNW,332,15.0,32.0,-999,-99.99,,,-99.99,,2013-02-04 07:52:00,
2013-02-04 03:01:00,30.0,-99.9,29.92,NNW,336,14.0,28.0,-999,-99.99,,,-99.99,,2013-02-04 08:01:00,
2013-02-04 03:11:00,-999.0,-99.9,29.92,NNW,329,15.0,29.0,-999,-99.99,,,-99.99,,2013-02-04 08:11:00,
2013-02-04 03:21:00,-999.0,-99.9,29.93,NNW,329,14.0,31.0,-999,-99.99,,,-99.99,,2013-02-04 08:21:00,
2013-02-04 03:32:00,-999.0,-99.9,29.93,NNW,332,13.0,25.0,-999,-99.99,,,-99.99,,2013-02-04 08:32:00,
2013-02-04 03:42:00,-999.0,-99.9,29.93,NNW,332,15.0,32.0,-999,-99.99,,,-99.99,,2013-02-04 08:42:00,
2013-02-04 03:52:00,-999.0,-99.9,29.94,NNW,330,13.0,27.0,-999,-99.99,,,-99.99,,2013-02-04 08:52:00,
2013-02-04 04:02:00,29.0,-99.9,29.95,NNW,337,15.0,24.0,-999,-99.99,,,-99.99,,2013-02-04 09:02:00,
2013-02-04 04:11:00,-999.0,-99.9,29.95,NNW,330,14.0,29.0,-999,-99.99,,,-99.99,,2013-02-04 09:11:00,
2013-02-04 04:22:00,-999.0,-99.9,29.95,NNW,330,15.0,26.0,-999,-99.99,,,-99.99,,2013-02-04 09:22:00,
2013-02-04 04:32:00,29.0,-99.9,29.96,NNW,332,12.0,24.0,-999,-99.99,,,-99.99,,2013-02-04 09:32:00,
2013-02-04 04:42:00,-999.0,-99.9,29.96,NNW,334,13.0,27.0,-999,-99.99,,,-99.99,,2013-02-04 09:42:00,
2013-02-04 04:52:00,29.0,-99.9,29.96,NW,325,15.0,25.0,-999,-99.99,,,-99.99,,2013-02-04 09:52:00,
2013-02-04 05:02:00,-999.0,-99.9,29.96,NW,324,15.0,28.0,-999,-99.99,,,-99.99,,2013-02-04 10:02:00,
2013-02-04 05:12:00,-999.0,-99.9,29.96,NNW,331,17.0,28.0,-999,-99.99,,,-99.99,,2013-02-04 10:12:00,
2013-02-04 05:22:00,-999.0,-99.9,29.97,NNW,331,14.0,31.0,-999,-99.99,,,-99.99,,2013-02-04 10:22:00,
2013-02-04 05:32:00,28.0,-99.9,29.98,NNW,328,17.0,26.0,-999,-99.99,,,-99.99,,2013-02-04 10:32:00,
2013-02-04 05:42:00,-999.0,-99.9,29.98,NW,325,16.0,32.0,-999,-99.99,,,-99.99,,2013-02-04 10:42:00,
2013-02-04 05:52:00,-999.0,-99.9,29.98,NW,322,16.0,28.0,-999,-99.99,,,-99.99,,2013-02-04 10:52:00,
2013-02-04 06:02:00,28.0,-99.9,29.98,NW,326,16.0,26.0,-999,-99.99,,,-99.99,,2013-02-04 11:02:00,
2013-02-04 06:11:00,-999.0,-99.9,29.98,NW,326,16.0,25.0,-999,-99.99,,,-99.99,,2013-02-04 11:11:00,
2013-02-04 06:22:00,28.0,-99.9,29.98,NNW,332,13.0,22.0,-999,-99.99,,,-99.99,,2013-02-04 11:22:00,
2013-02-04 06:33:00,-999.0,-99.9,29.99,NW,317,19.0,27.0,-999,-99.99,,,-99.99,,2013-02-04 11:33:00,
2013-02-04 06:42:00,-999.0,-99.9,30.00,NW,324,19.0,33.0,-999,-99.99,,,-99.99,,2013-02-04 11:42:00,
2013-02-04 06:52:00,-999.0,-99.9,30.01,NNW,332,14.0,28.0,-999,-99.99,,,-99.99,,2013-02-04 11:52:00,
2013-02-04 07:03:00,28.0,-99.9,30.00,NW,324,15.0,27.0,-999,-99.99,,,-99.99,,2013-02-04 12:03:00,
2013-02-04 07:12:00,-999.0,-99.9,30.01,NW,324,16.0,26.0,-999,-99.99,,,-99.99,,2013-02-04 12:12:00,
2013-02-04 07:22:00,-999.0,-99.9,30.02,NW,321,16.0,26.0,-999,-99.99,,,-99.99,,2013-02-04 12:22:00,
2013-02-04 07:33:00,28.0,-99.9,30.03,NW,320,18.0,26.0,-999,-99.99,,,-99.99,,2013-02-04 12:33:00,
2013-02-04 07:42:00,-999.0,-99.9,30.04,NW,321,19.0,29.0,-999,-99.99,,,-99.99,,2013-02-04 12:42:00,
2013-02-04 07:53:00,28.0,-99.9,30.04,NW,321,18.0,28.0,-999,-99.99,,,-99.99,,2013-02-04 12:53:00,
2013-02-04 08:03:00,-999.0,-99.9,30.05,NW,320,23.0,28.0,-999,-99.99,,,-99.99,,2013-02-04 13:03:00,
2013-02-04 08:12:00,-999.0,-99.9,30.06,NW,316,22.0,29.0,-999,-99.99,,,-99.99,,2013-02-04 13:12:00,
2013-02-04 08:22:00,-999.0,-99.9,30.06,NW,322,22.0,27.0,-999,-99.99,,,-99.99,,2013-02-04 13:22:00,
2013-02-04 08:33:00,28.0,-99.9,30.06,NW,317,22.0,29.0,-999,-99.99,,,-99.99,,2013-02-04 13:33:00,
2013-02-04 08:42:00,-999.0,-99.9,30.07,NW,320,23.0,30.0,-999,-99.99,,,-99.99,,2013-02-04 13:42:00,
2013-02-04 08:52:00,-999.0,-99.9,30.07,NW,314,18.0,26.0,-999,-99.99,,,-99.99,,2013-02-04 13:52:00,
2013-02-04 09:03:00,28.0,-99.9,30.08,NW,318,20.0,26.0,-999,-99.99,,,-99.99,,2013-02-04 14:03:00,
2013-02-04 09:12:00,-999.0,-99.9,30.08,NW,314,20.0,25.0,-999,-99.99,,,-99.99,,2013-02-04 14:12:00,
2013-02-04 09:23:00,28.0,-99.9,30.08,NW,316,21.0,26.0,-999,-99.99,,,-99.99,,2013-02-04 14:23:00,
2013-02-04 09:33:00,-999.0,-99.9,30.09,NW,313,21.0,25.0,-999,-99.99,,,-99.99,,2013-02-04 14:33:00,
2013-02-04 09:42:00,-999.0,-99.9,30.08,NW,316,21.0,25.0,-999,-99.99,,,-99.99,,2013-02-04 14:42:00,
2013-02-04 09:53:00,-999.0,-99.9,30.09,NW,318,20.0,24.0,-999,-99.99,,,-99.99,,2013-02-04 14:53:00,
2013-02-04 10:04:00,28.0,-99.9,30.08,NW,312,20.0,27.0,-999,-99.99,,,-99.99,,2013-02-04 15:04:00,
2013-02-04 10:13:00,-999.0,-99.9,30.08,NW,309,22.0,26.0,-999,-99.99,,,-99.99,,2013-02-04 15:13:00,
2013-02-04 10:24:00,-999.0,-99.9,30.08,NW,311,21.0,26.0,-999,-99.99,,,-99.99,,2013-02-04 15:24:00,
2013-02-04 10:33:00,28.0,-99.9,30.08,NW,317,19.0,24.0,-999,-99.99,,,-99.99,,2013-02-04 15:33:00,
2013-02-04 10:43:00,-999.0,-99.9,30.08,NW,307,18.0,24.0,-999,-99.99,,,-99.99,,2013-02-04 15:43:00,
2013-02-04 10:53:00,27.0,-99.9,30.07,NW,315,21.0,24.0,-999,-99.99,,,-99.99,,2013-02-04 15:53:00,
2013-02-04 11:03:00,-999.0,-99.9,30.08,NW,314,19.0,27.0,-999,-99.99,,,-99.99,,2013-02-04 16:03:00,
2013-02-04 11:11:00,-999.0,-99.9,30.08,NW,310,19.0,25.0,-999,-99.99,,,-99.99,,2013-02-04 16:11:00,
2013-02-04 11:23:00,-999.0,-99.9,30.08,WNW,303,20.0,24.0,-999,-99.99,,,-99.99,,2013-02-04 16:23:00,
2013-02-04 11:33:00,28.0,-99.9,30.07,NW,309,17.0,24.0,-999,-99.99,,,-99.99,,2013-02-04 16:33:00,
2013-02-04 11:43:00,-999.0,-99.9,30.07,WNW,301,17.0,23.0,-999,-99.99,,,-99.99,,2013-02-04 16:43:00,
2013-02-04 11:52:00,-999.0,-99.9,30.07,WNW,298,20.0,25.0,-999,-99.99,,,-99.99,,2013-02-04 16:52:00,
2013-02-04 12:03:00,-999.0,-99.9,30.07,WNW,298,20.0,25.0,-999,-99.99,,,-99.99,,2013-02-04 17:03:00,
2013-02-04 12:12:00,-999.0,-99.9,30.06,WNW,294,16.0,19.0,-999,-99.99,,,-99.99,,2013-02-04 17:12:00,
2013-02-04 12:21:00,28.0,-99.9,30.05,NW,312,17.0,20.0,-999,-99.99,,,-99.99,,2013-02-04 17:21:00,
2013-02-04 12:32:00,-999.0,-99.9,30.04,NW,304,19.0,24.0,-999,-99.99,,,-99.99,,2013-02-04 17:32:00,
2013-02-04 12:42:00,-999.0,-99.9,30.04,NW,311,17.0,23.0,-999,-99.99,,,-99.99,,2013-02-04 17:42:00,
2013-02-04 12:52:00,-999.0,-99.9,30.03,NW,313,17.0,24.0,-999,-99.99,,,-99.99,,2013-02-04 17:52:00,
2013-02-04 13:03:00,-999.0,-99.9,30.03,NW,317,15.0,17.0,-999,-99.99,,,-99.99,,2013-02-04 18:03:00,
2013-02-04 13:12:00,-999.0,-99.9,30.01,NW,313,19.0,23.0,-999,-99.99,,,-99.99,,2013-02-04 18:12:00,
2013-02-04 13:22:00,-999.0,-99.9,30.01,NW,309,17.0,20.0,-999,-99.99,,,-99.99,,2013-02-04 18:22:00,
2013-02-04 13:33:00,30.0,-99.9,30.01,NW,314,18.0,24.0,-999,-99.99,,,-99.99,,2013-02-04 18:33:00,
2013-02-04 13:42:00,-999.0,-99.9,30.01,NW,314,16.0,21.0,-999,-99.99,,,-99.99,,2013-02-04 18:42:00,
2013-02-04 13:52:00,30.0,-99.9,30.00,NW,316,18.0,22.0,-999,-99.99,,,-99.99,,2013-02-04 18:52:00,
2013-02-04 14:02:00,-999.0,-99.9,30.00,WNW,301,13.0,17.0,-999,-99.99,,,-99.99,,2013-02-04 19:02:00,
2013-02-04 14:12:00,-999.0,-99.9,30.00,NW,310,17.0,20.0,-999,-99.99,,,-99.99,,2013-02-04 19:12:00,
2013-02-04 14:23:00,-999.0,-99.9,29.99,NW,305,13.0,19.0,-999,-99.99,,,-99.99,,2013-02-04 19:23:00,
2013-02-04 14:32:00,31.0,-99.9,29.99,WNW,299,16.0,20.0,-999,-99.99,,,-99.99,,2013-02-04 19:32:00,
2013-02-04 14:42:00,-999.0,-99.9,29.99,WNW,290,15.0,19.0,-999,-99.99,,,-99.99,,2013-02-04 19:42:00,
2013-02-04 14:52:00,-999.0,-99.9,30.00,WNW,301,15.0,20.0,-999,-99.99,,,-99.99,,2013-02-04 19:52:00,
2013-02-04 15:02:00,31.0,-99.9,30.00,NW,310,12.0,18.0,-999,-99.99,,,-99.99,,2013-02-04 20:02:00,
2013-02-04 15:12:00,-999.0,-99.9,30.00,WNW,301,13.0,17.0,-999,-99.99,,,-99.99,,2013-02-04 20:12:00,
2013-02-04 15:22:00,-999.0,-99.9,29.99,WNW,288,15.0,19.0,-999,-99.99,,,-99.99,,2013-02-04 20:22:00,
2013-02-04 15:32:00,-999.0,-99.9,29.99,WNW,291,17.0,20.0,-999,-99.99,,,-99.99,,2013-02-04 20:32:00,
2013-02-04 15:42:00,-999.0,-99.9,29.99,WNW,293,17.0,22.0,-999,-99.99,,,-99.99,,2013-02-04 20:42:00,
2013-02-04 15:52:00,-999.0,-99.9,29.99,WNW,294,18.0,23.0,-999,-99.99,,,-99.99,,2013-02-04 20:52:00,
2013-02-04 16:03:00,32.0,-99.9,29.99,WNW,292,19.0,23.0,-999,-99.99,,,-99.99,,2013-02-04 21:03:00,
2013-02-04 16:12:00,-999.0,-99.9,29.99,WNW,283,16.0,18.0,-999,-99.99,,,-99.99,,2013-02-04 21:12:00,
2013-02-04 16:23:00,32.0,-99.9,29.99,WNW,288,16.0,19.0,-999,-99.99,,,-99.99,,2013-02-04 21:23:00,
2013-02-04 16:32:00,-999.0,-99.9,29.99,WNW,287,13.0,16.0,-999,-99.99,,,-99.99,,2013-02-04 21:32:00,
2013-02-04 16:43:00,32.0,-99.9,30.00,West,281,14.0,18.0,-999,-99.99,,,-99.99,,2013-02-04 21:43:00,
2013-02-04 16:52:00,32.0,-99.9,30.00,WNW,282,13.0,19.0,-999,-99.99,,,-99.99,,2013-02-04 21:52:00,
2013-02-04 17:03:00,32.0,-99.9,30.00,WNW,283,17.0,20.0,-999,-99.99,,,-99.99,,2013-02-04 22:03:00,
2013-02-04 17:12:00,33.0,-99.9,29.99,WNW,282,15.0,18.0,-999,-99.99,,,-99.99,,2013-02-04 22:12:00,
2013-02-04 17:22:00,33.0,-99.9,29.99,West,273,13.0,14.0,-999,-99.99,,,-99.99,,2013-02-04 22:22:00,
2013-02-04 17:33:00,32.0,-99.9,29.99,WNW,290,13.0,15.0,-999,-99.99,,,-99.99,,2013-02-04 22:33:00,
2013-02-04 17:42:00,33.0,-99.9,29.99,West,279,12.0,14.0,-999,-99.99,,,-99.99,,2013-02-04 22:42:00,
2013-02-04 17:52:00,33.0,-99.9,29.99,West,279,12.0,13.0,-999,-99.99,,,-99.99,,2013-02-04 22:52:00,
2013-02-04 18:02:00,33.0,-99.9,29.99,West,268,13.0,15.0,-999,-99.99,,,-99.99,,2013-02-04 23:02:00,
2013-02-04 18:11:00,33.0,-99.9,29.99,West,269,12.0,13.0,-999,-99.99,,,-99.99,,2013-02-04 23:11:00,
2013-02-04 18:22:00,33.0,-99.9,30.00,West,261,12.0,15.0,-999,-99.99,,,-99.99,,2013-02-04 23:22:00,
2013-02-04 18:32:00,33.0,-99.9,30.00,West,265,15.0,19.0,-999,-99.99,,,-99.99,,2013-02-04 23:32:00,
2013-02-04 18:42:00,33.0,-99.9,29.99,West,266,13.0,15.0,-999,-99.99,,,-99.99,,2013-02-04 23:42:00,
2013-02-04 18:53:00,33.0,-99.9,29.99,West,263,12.0,14.0,-999,-99.99,,,-99.99,,2013-02-04 23:53:00,
2013-02-04 19:02:00,33.0,-99.9,30.00,WSW,251,10.0,11.0,-999,-99.99,,,-99.99,,2013-02-05 00:02:00,
2013-02-04 19:12:00,33.0,-99.9,30.00,WSW,257,9.0,11.0,-999,-99.99,,,-99.99,,2013-02-05 00:12:00,
2013-02-04 19:22:00,33.0,-99.9,29.99,WSW,252,10.0,12.0,-999,-99.99,,,-99.99,,2013-02-05 00:22:00,
2013-02-04 19:32:00,33.0,-99.9,29.99,WSW,258,11.0,12.0,-999,-99.99,,,-99.99,,2013-02-05 00:32:00,
2013-02-04 19:42:00,33.0,-99.9,29.99,WSW,243,8.0,10.0,-999,-99.99,,,-99.99,,2013-02-05 00:42:00,
2013-02-04 19:52:00,33.0,-99.9,30.00,WSW,240,8.0,10.0,-999,-99.99,,,-99.99,,2013-02-05 00:52:00,
2013-02-04 20:02:00,33.0,-99.9,30.00,WSW,239,8.0,10.0,-999,-99.99,,,-99.99,,2013-02-05 01:02:00,
2013-02-04 20:12:00,33.0,-99.9,30.00,WSW,254,10.0,11.0,-999,-99.99,,,-99.99,,2013-02-05 01:12:00,
2013-02-04 20:22:00,33.0,-99.9,30.00,SW,230,8.0,10.0,-999,-99.99,,,-99.99,,2013-02-05 01:22:00,
2013-02-04 20:33:00,33.0,-99.9,29.99,SW,231,6.0,8.0,-999,-99.99,,,-99.99,,2013-02-05 01:33:00,
2013-02-04 20:42:00,33.0,-99.9,29.99,South,188,4.0,6.0,-999,-99.99,,,-99.99,,2013-02-05 01:42:00,
2013-02-04 20:52:00,33.0,-99.9,29.99,South,179,4.0,5.0,-999,-99.99,,,-99.99,,2013-02-05 01:52:00,
2013-02-04 21:02:00,32.0,-99.9,29.99,South,187,3.0,4.0,-999,-99.99,,,-99.99,,2013-02-05 02:02:00,
2013-02-04 21:12:00,33.0,-99.9,29.98,SSW,198,4.0,6.0,-999,-99.99,,,-99.99,,2013-02-05 02:12:00,
2013-02-04 21:22:00,33.0,-99.9,29.98,South,183,4.0,6.0,-999,-99.99,,,-99.99,,2013-02-05 02:22:00,
2013-02-04 21:32:00,33.0,-99.9,29.98,South,178,6.0,7.0,-999,-99.99,,,-99.99,,2013-02-05 02:32:00,
2013-02-04 21:42:00,33.0,-99.9,29.97,South,172,5.0,7.0,-999,-99.99,,,-99.99,,2013-02-05 02:42:00,
2013-02-04 21:52:00,33.0,-99.9,29.96,South,171,5.0,7.0,-999,-99.99,,,-99.99,,2013-02-05 02:52:00,
2013-02-04 22:02:00,34.0,-99.9,29.96,South,178,5.0,7.0,-999,-99.99,,,-99.99,,2013-02-05 03:02:00,
2013-02-04 22:11:00,34.0,-99.9,29.96,South,178,5.0,7.0,-999,-99.99,,,-99.99,,2013-02-05 03:11:00,
2013-02-04 22:22:00,35.0,-99.9,29.97,SSW,204,6.0,8.0,-999,-99.99,,,-99.99,,2013-02-05 03:22:00,
2013-02-04 22:32:00,35.0,-99.9,29.97,South,188,5.0,7.0,-999,-99.99,,,-99.99,,2013-02-05 03:32:00,
2013-02-04 22:42:00,35.0,-99.9,29.96,South,179,5.0,7.0,-999,-99.99,,,-99.99,,2013-02-05 03:42:00,
2013-02-04 22:52:00,35.0,-99.9,29.95,South,185,6.0,8.0,-999,-99.99,,,-99.99,,2013-02-05 03:52:00,
2013-02-04 23:01:00,36.0,-99.9,29.95,South,177,6.0,7.0,-999,-99.99,,,-99.99,,2013-02-05 04:01:00,
2013-02-04 23:11:00,36.0,-99.9,29.95,SSW,194,4.0,6.0,-999,-99.99,,,-99.99,,2013-02-05 04:11:00,
2013-02-04 23:22:00,36.0,-99.9,29.94,South,183,6.0,9.0,-999,-99.99,,,-99.99,,2013-02-05 04:22:00,
2013-02-04 23:32:00,37.0,-99.9,29.94,SSW,196,7.0,11.0,-999,-99.99,,,-99.99,,2013-02-05 04:32:00,
2013-02-04 23:42:00,37.0,-99.9,29.94,SSW,194,8.0,11.0,-999,-99.99,,,-99.99,,2013-02-05 04:42:00,
2013-02-04 23:52:00,38.0,-99.9,29.94,SSW,207,10.0,15.0,-999,-99.99,,,-99.99,,2013-02-05 04:52:00,